Regional Weather Roundup
Issued by NWS Jackson, KY

Home | Current Version | Previous Version | Text Only | Print | Product List | Glossary Off
Versions: 1 2 3 4 5 6 7 8 9 10 11 12 13 14 15 16 17 18 19 20 21 22 23 24 25 26 27

000
ASUS43 KJKL 181310
RWRJKL

EAST KENTUCKY HOURLY WEATHER ROUNDUP
NATIONAL WEATHER SERVICE JACKSON KY
900 AM EDT FRI AUG 18 2017

NOTE: "FAIR" INDICATES FEW OR NO CLOUDS BELOW 12,000 FEET WITH
NO SIGNIFICANT WEATHER AND/OR OBSTRUCTIONS TO VISIBILITY.

* THESE REPORTS ARE NOT UNDER NWS QUALITY CONTROL AND MAY NOT
  REPORT WEATHER SUCH AS PRECIPITATION AND FOG.

KYZ079-080-083-085-087-088-110-112-115-119-120-181400
...EASTERN KENTUCKY...

CITY           SKY/WX    TMP DP  RH WIND       PRES   REMARKS
JACKSON        CLOUDY    72  71  97 CALM      29.96R FOG
LONDON         CLOUDY    74  72  93 SW5       29.97R
SOMERSET*      RAIN      72  72 100 W7        29.97R
MONTICELLO*    LGT RAIN  74  73  97 W16       29.98R
WILLIAMSBURG*  PTSUNNY   73  73 100 CALM      29.98R
MIDDLESBORO*   CLOUDY    76  74  92 CALM      29.98S
HARLAN APT*    CLOUDY    72  70  94 CALM      29.99S
PIKE CO APT*   LGT RAIN  71  71 100 CALM      29.96S
BIG SANDY APT* LGT RAIN  73  73 100 SW3       29.94F
MOREHEAD APT*  CLOUDY    73  72  94 VRB6      29.94R
$$

KYZ035-036-041-042-044-050-067-078-099-181400
...CENTRAL KENTUCKY...

CITY           SKY/WX    TMP DP  RH WIND       PRES   REMARKS
MT STERLING*   PTSUNNY   75  72  88 NW6       29.95R
FLEMING/MASON* CLOUDY    74  73  94 W7        29.92S
DANVILLE*      CLOUDY    73  70  88 W7        29.96R
LEXINGTON      CLOUDY    75  71  87 W5        29.94R
FRANKFORT      MOSUNNY   76  71  85 W6        29.92R
LOUISVILLE     MOSUNNY   76  71  85 W9        29.93R
LEBANON*         N/A     75  72  88 SW3       29.95R
GLASGOW*       CLOUDY    74  73  96 W7        29.96S
BOWLING GREEN  SUNNY     76  73  91 W7        29.97R
$$

KYZ091>093-OHZ055-061-077-WVZ005-015-034-035-042-181400
...SOUTHERN OHIO/WEST VIRGINIA...

CITY           SKY/WX    TMP DP  RH WIND       PRES   REMARKS
COVINGTON      MOSUNNY   74  73  97 W8        29.90R
COLUMBUS       MOSUNNY   76  72  87 W8        29.85R
DAYTON         MOSUNNY   72  68  87 W10       29.89R
WILMINGTON     PTSUNNY   74  73  97 W9        29.89R
HUNTINGTON     CLOUDY    74  72  93 SW5       29.90S
CHARLESTON     CLOUDY    74  71  91 SW3       29.91S
PINEVILLE*     LGT RAIN  72  71  95 MISG      30.03S
BECKLEY        CLOUDY    74  68  81 SW9       30.02S
BLUEFIELD      CLOUDY    73  67  81 SW14      30.05F
LOGAN CO APT*  LGT RAIN  73  72  94 VRB5G12   29.96R
$$

VAZ002-007-008-TNZ017-027-036-066-071-181400
...SOUTHWEST VIRGINIA/EAST TENNESSEE...

CITY           SKY/WX    TMP DP  RH WIND       PRES   REMARKS
WISE*          CLOUDY    72  72 100 SW10      30.05S
JONESVILLE*      N/A     73  72  94 CALM      30.00F
ABINGDON*      CLOUDY    76  73  88 W9        30.03S
BRISTOL        CLOUDY    75  72  90 SW5       30.00S
MORRISTOWN*    PTSUNNY   77  72  83 W9G17     29.99S
SEVIERVILLE*   MOSUNNY   75  72  88 SW6       29.98S
KNOXVILLE      PTSUNNY   78  72  81 SW10      29.97F
LAFOLLETTE*    CLOUDY    73  73 100 CALM      30.02R FOG
OAK RIDGE      LGT RAIN  76  73  91 CALM      29.99S
CROSSVILLE     CLOUDY    71  70  96 W3        30.04R
NASHVILLE      PTSUNNY   77  71  82 W8        29.99R
$$

...KEY TO REMARKS...
VSB - VISIBILITY IN MILES
WCI - WIND CHILL INDEX
HX  - HEAT INDEX

$$




USA.gov is the U.S. government's official web portal to all federal, state and local government web resources and services.